Location: Campillo
(40.8621°N, 4.2488°W)
Time: 11:01:43
(UTC+00:00)

SPOT 1/Viking Rocket - Pass Details

Date: 11 May 2021
Orbit: 776 x 795 km, 98.4° (Epoch: 13 June)

Event Time Altitude Azimuth Distance (km) Brightness Sun altitude
Exits shadow 21:23:34 33° 163° (SSE) 1,316 4.2 -19.1°
Maximum altitude 21:26:01 87° 76° (ENE) 797 3.5 -19.4°
Drops below altitude 10° 21:31:14 10° 348° (NNW) 2,357 6.9 -20.1°
Sets 21:33:34 0° 348° (NNW) 3,287 7.8 -20.3°
